When you browse on this site, cookies collect data to enhance your experience and personalize the content and advertising you see.
Visit our Privacy Policy to learn more. By continuing to use the site, you agree to this use of cookies and data.
  • In Hungary
  • List of Countries
  • For 7 days
  • Water Temperature
  • Satellite Maps
  • Weather Map
  • News
  • Weather Widgets
  • user-avatar
    Login

    Hourly Weather Maloe Vyzhlyatnikovo

    Today, 17 January, Thursday

    Time Temperature Precipitation Wind Pressure Humidity
    00:00 -10°C° 0 mm 3 mps 726 mmHg 92%
    01:00 -12°C° 0 mm 3 mps 726 mmHg 94%
    02:00 -12°C° 0 mm 2 mps 726 mmHg 96%
    03:00 -12°C° 0 mm 2 mps 725 mmHg 96%
    04:00 -13°C° 0 mm 3 mps 725 mmHg 96%
    05:00 -12°C° 0 mm 3 mps 725 mmHg 96%
    06:00 -12°C° 0.1 mm 4 mps 724 mmHg 94%
    07:00 -12°C° 0.1 mm 5 mps 723 mmHg 93%
    08:00 -11°C° 0 mm 5 mps 722 mmHg 91%
    09:00 -10°C° 0.5 mm 6 mps 722 mmHg 91%
    10:00 -8°C° 0.5 mm 6 mps 721 mmHg 90%
    11:00 -7°C° 0.5 mm 7 mps 721 mmHg 90%
    12:00 -6°C° 0.2 mm 7 mps 721 mmHg 89%
    13:00 -4°C° 0.2 mm 7 mps 720 mmHg 88%
    14:00 -3°C° 0.2 mm 7 mps 720 mmHg 86%
    15:00 -2°C° 0.3 mm 7 mps 719 mmHg 87%
    16:00 -2°C° 0.3 mm 6 mps 719 mmHg 87%
    17:00 -2°C° 0.3 mm 6 mps 718 mmHg 88%
    18:00 -2°C° 0.6 mm 6 mps 718 mmHg 88%
    19:00 -2°C° 0.6 mm 6 mps 717 mmHg 88%
    20:00 -2°C° 0.6 mm 6 mps 717 mmHg 87%
    21:00 -2°C° 0.2 mm 6 mps 718 mmHg 87%
    22:00 -2°C° 0.2 mm 6 mps 718 mmHg 87%
    23:00 -2°C° 0.2 mm 6 mps 719 mmHg 87%

    Tomorrow, 18 January, Friday

    Time Temperature Precipitation Wind Pressure Humidity
    00:00 -2°C° 0.2 mm 6 mps 719 mmHg 87%
    01:00 -2°C° 0.2 mm 6 mps 720 mmHg 87%
    02:00 -2°C° 0.2 mm 6 mps 720 mmHg 87%
    03:00 -1°C° 0.2 mm 5 mps 721 mmHg 88%
    04:00 -2°C° 0.2 mm 5 mps 721 mmHg 88%
    05:00 -2°C° 0.2 mm 4 mps 722 mmHg 88%
    06:00 -3°C° 0.3 mm 4 mps 722 mmHg 90%
    07:00 -2°C° 0.3 mm 3 mps 723 mmHg 91%
    08:00 -4°C° 0.3 mm 3 mps 724 mmHg 92%
    09:00 -4°C° 0.3 mm 3 mps 724 mmHg 92%
    10:00 -4°C° 0.3 mm 2 mps 725 mmHg 92%
    11:00 -4°C° 0.3 mm 2 mps 725 mmHg 93%
    12:00 -4°C° 0.3 mm 2 mps 725 mmHg 93%
    13:00 -2°C° 0.3 mm 1 mps 725 mmHg 94%
    14:00 -3°C° 0.3 mm 1 mps 725 mmHg 95%
    15:00 -3°C° 0.7 mm 1 mps 724 mmHg 95%
    16:00 -6°C° 0.7 mm 2 mps 724 mmHg 96%
    17:00 -7°C° 0.7 mm 3 mps 724 mmHg 96%
    18:00 -8°C° 1.2 mm 3 mps 724 mmHg 95%
    19:00 -9°C° 1.2 mm 3 mps 724 mmHg 94%
    20:00 -10°C° 1.2 mm 4 mps 724 mmHg 94%
    21:00 -9°C° 0.2 mm 3 mps 725 mmHg 93%
    22:00 -10°C° 0.2 mm 3 mps 725 mmHg 92%
    23:00 -10°C° 0.2 mm 3 mps 726 mmHg 92%

    Day after tomorrow, 19 January, Saturday

    Time Temperature Precipitation Wind Pressure Humidity
    00:00 -10°C° 0 mm 3 mps 727 mmHg 93%
    01:00 -12°C° 0 mm 3 mps 728 mmHg 94%
    02:00 -12°C° 0 mm 3 mps 729 mmHg 95%
    03:00 -12°C° 0 mm 3 mps 729 mmHg 93%
    04:00 -11°C° 0 mm 4 mps 729 mmHg 92%
    05:00 -10°C° 0 mm 4 mps 729 mmHg 91%
    06:00 -10°C° 0 mm 4 mps 730 mmHg 91%
    07:00 -10°C° 0 mm 4 mps 730 mmHg 91%
    08:00 -9°C° 0 mm 3 mps 731 mmHg 92%
    09:00 -10°C° 0 mm 4 mps 731 mmHg 91%
    10:00 -9°C° 0 mm 4 mps 731 mmHg 90%
    11:00 -10°C° 0 mm 5 mps 731 mmHg 89%
    12:00 -8°C° 0.1 mm 5 mps 732 mmHg 89%
    13:00 -8°C° 0.1 mm 5 mps 732 mmHg 88%
    14:00 -8°C° 0.1 mm 5 mps 732 mmHg 87%
    15:00 -8°C° 0.1 mm 4 mps 732 mmHg 88%
    16:00 -8°C° 0.1 mm 4 mps 732 mmHg 89%
    17:00 -9°C° 0.1 mm 4 mps 733 mmHg 91%
    18:00 -9°C° 0 mm 4 mps 733 mmHg 90%
    19:00 -8°C° 0 mm 4 mps 733 mmHg 90%
    20:00 -8°C° 0 mm 4 mps 734 mmHg 90%
    21:00 -8°C° 0 mm 4 mps 734 mmHg 90%
    22:00 -8°C° 0 mm 4 mps 734 mmHg 90%
    23:00 -8°C° 0 mm 4 mps 734 mmHg 90%

    20 January, Sunday

    Time Temperature Precipitation Wind Pressure Humidity
    00:00 -9°C° 0 mm 4 mps 734 mmHg 91%
    01:00 -9°C° 0 mm 4 mps 734 mmHg 91%
    02:00 -9°C° 0 mm 4 mps 734 mmHg 92%
    03:00 -10°C° 0 mm 4 mps 734 mmHg 92%
    04:00 -10°C° 0 mm 4 mps 734 mmHg 93%
    05:00 -10°C° 0 mm 4 mps 734 mmHg 93%
    06:00 -9°C° 0 mm 4 mps 734 mmHg 92%
    07:00 -9°C° 0 mm 4 mps 733 mmHg 92%
    08:00 -8°C° 0 mm 4 mps 733 mmHg 92%
    09:00 -7°C° 0.2 mm 5 mps 733 mmHg 90%
    10:00 -7°C° 0.2 mm 5 mps 732 mmHg 89%
    11:00 -6°C° 0.2 mm 6 mps 732 mmHg 87%
    12:00 -6°C° 0.3 mm 6 mps 731 mmHg 88%
    13:00 -6°C° 0.3 mm 6 mps 731 mmHg 88%
    14:00 -6°C° 0.3 mm 6 mps 731 mmHg 89%
    15:00 -6°C° 0.4 mm 5 mps 731 mmHg 90%
    16:00 -7°C° 0.4 mm 4 mps 731 mmHg 91%
    17:00 -6°C° 0.4 mm 3 mps 731 mmHg 93%
    18:00 -7°C° 0.2 mm 3 mps 731 mmHg 93%
    19:00 -7°C° 0.2 mm 2 mps 732 mmHg 94%
    20:00 -8°C° 0.2 mm 2 mps 732 mmHg 95%
    21:00 -9°C° 0 mm 2 mps 732 mmHg 96%
    22:00 -10°C° 0 mm 2 mps 732 mmHg 97%
    23:00 -12°C° 0 mm 2 mps 732 mmHg 98%

    21 January, Monday

    Time Temperature Precipitation Wind Pressure Humidity
    00:00 -12°C° 0 mm 2 mps 732 mmHg 98%
    01:00 -12°C° 0 mm 2 mps 732 mmHg 98%
    02:00 -10°C° 0 mm 1 mps 732 mmHg 98%
    03:00 -10°C° 0.1 mm 1 mps 732 mmHg 97%
    04:00 -10°C° 0.1 mm 1 mps 732 mmHg 97%
    05:00 -9°C° 0.1 mm 1 mps 732 mmHg 97%
    06:00 -9°C° 0.2 mm 1 mps 732 mmHg 97%
    07:00 -10°C° 0.2 mm 2 mps 733 mmHg 96%
    08:00 -10°C° 0.2 mm 2 mps 733 mmHg 96%
    09:00 -10°C° 0 mm 2 mps 733 mmHg 94%
    10:00 -13°C° 0 mm 3 mps 733 mmHg 92%
    11:00 -13°C° 0 mm 3 mps 734 mmHg 91%
    12:00 -13°C° 0.1 mm 3 mps 734 mmHg 90%
    13:00 -13°C° 0.1 mm 3 mps 734 mmHg 88%
    14:00 -14°C° 0.1 mm 4 mps 734 mmHg 87%
    15:00 -14°C° 0 mm 3 mps 734 mmHg 90%
    16:00 -15°C° 0 mm 3 mps 734 mmHg 92%
    17:00 -15°C° 0 mm 2 mps 734 mmHg 94%
    18:00 -15°C° 0 mm 2 mps 734 mmHg 95%
    19:00 -15°C° 0 mm 2 mps 734 mmHg 96%
    20:00 -16°C° 0 mm 2 mps 734 mmHg 97%
    21:00 -15°C° 0 mm 2 mps 734 mmHg 97%
    22:00 -15°C° 0 mm 2 mps 734 mmHg 97%
    23:00 -15°C° 0 mm 2 mps 734 mmHg 97%

    22 January, Tuesday

    Time Temperature Precipitation Wind Pressure Humidity
    00:00 -15°C° 0 mm 2 mps 734 mmHg 96%
    01:00 -14°C° 0 mm 2 mps 734 mmHg 96%
    02:00 -14°C° 0 mm 2 mps 734 mmHg 96%
    03:00 -14°C° 0 mm 2 mps 734 mmHg 95%
    04:00 -13°C° 0 mm 2 mps 734 mmHg 95%
    05:00 -13°C° 0 mm 2 mps 734 mmHg 95%
    06:00 -14°C° 0 mm 2 mps 734 mmHg 96%
    07:00 -15°C° 0 mm 2 mps 735 mmHg 96%
    08:00 -16°C° 0 mm 2 mps 735 mmHg 97%
    09:00 -15°C° 0 mm 2 mps 735 mmHg 95%
    10:00 -15°C° 0 mm 3 mps 736 mmHg 94%
    11:00 -15°C° 0 mm 3 mps 736 mmHg 93%
    12:00 -14°C° 0.1 mm 3 mps 736 mmHg 91%
    13:00 -14°C° 0.1 mm 3 mps 736 mmHg 89%
    14:00 -13°C° 0.1 mm 3 mps 736 mmHg 87%
    15:00 -14°C° 0 mm 3 mps 737 mmHg 89%
    16:00 -14°C° 0 mm 2 mps 737 mmHg 92%
    17:00 -15°C° 0 mm 2 mps 737 mmHg 94%
    18:00 -16°C° 0 mm 2 mps 737 mmHg 95%
    19:00 -17°C° 0 mm 2 mps 737 mmHg 97%
    20:00 -18°C° 0 mm 2 mps 738 mmHg 98%
    21:00 -16°C° 0 mm 1 mps 738 mmHg 98%
    22:00 -17°C° 0 mm 1 mps 738 mmHg 98%
    23:00 -18°C° 0 mm 1 mps 738 mmHg 99%
    Show more